Tracking 35055 objects as of 18-Aug-2026
HD Live streaming from Space Station
objects crossing your sky now

SCOUT G-1 DEB

Track SCOUT G-1 DEB now!
10-day predictions


NORAD ID: 43330
Int'l Code: 1988-033L
Launch date: April 26, 1988
Source: United States (US)
Launch site: AIR FORCE WESTERN TEST RANGE (AFWTR)

Note: This is SATELLITE DEBRIS
Your satellite tracking list
Your tracking list is empty




NASA's NSSDC Master Catalog

Two Line Element Set (TLE):
1 43330U 88033L   26220.14399647  .00000280  00000-0  50400-3 0  9992
2 43330  90.3209  20.0738 0188972 184.8925 175.0375 13.32893391666514
Source of the keplerian elements: AFSPC